EW8359 Weather Reports


time (UTC)temp
C
wind
direction
speed
KPH
gust
KPH
rain 1hr
cm
rain 24hr
cm
rain mn
cm
humidity
%
barometer
mb
20260508120027 9 194 0.0 14.5 0.00 0.00 0.00 53 1006.8
20260508114532 8 269 0.0 11.3 0.00 0.00 0.00 54 1006.7
20260508113027 8 257 0.0 9.7 0.00 0.00 0.00 56 1006.8
20260508111515 7 205 0.0 14.5 0.00 0.00 0.00 58 1006.7
20260508110012 6 258 0.0 0.0 0.00 0.00 0.00 62 1006.6
20260508104510 5 268 0.0 4.8 0.00 0.00 0.00 67 1006.5
20260508103009 5 269 0.0 4.8 0.00 0.00 0.00 72 1006.5
20260508101508 4 207 0.0 6.4 0.00 0.00 0.00 74 1006.4
20260508100008 3 223 0.0 9.7 0.00 0.00 0.00 74 1006.2
20260508094505 3 221 0.0 6.4 0.00 0.00 0.00 76 1006.0
20260508093007 3 267 0.0 1.6 0.00 0.00 0.00 77 1005.9
20260508091505 3 247 0.0 0.0 0.00 0.00 0.00 76 1005.8
20260508090003 2 228 0.0 4.8 0.00 0.00 0.00 79 1005.6
20260508084502 2 241 0.0 0.0 0.00 0.00 0.00 79 1005.4
20260508083100 2 241 0.0 0.0 0.00 0.00 0.00 78 1005.1
20260508081608 2 276 0.0 0.0 0.00 0.00 0.00 79 1005.2
20260508080059 2 297 0.0 0.0 0.00 0.00 0.00 80 1005.1
20260508074600 2 308 0.0 0.0 0.00 0.00 0.00 79 1005.0
20260508073103 2 308 0.0 0.0 0.00 0.00 0.00 77 1005.0
20260508071552 2 308 0.0 0.0 0.00 0.00 0.00 78 1005.0
20260508070051 2 308 0.0 0.0 0.00 0.00 0.00 77 1005.0
20260508064602 2 308 0.0 0.0 0.00 0.00 0.00 77 1005.0
20260508063045 2 308 0.0 0.0 0.00 0.00 0.00 77 1005.1
20260508061550 3 308 0.0 0.0 0.00 0.00 0.00 75 1005.4
20260508060042 3 308 0.0 0.0 0.00 0.00 0.00 74 1005.5
20260508054602 3 308 0.0 0.0 0.00 0.00 0.00 75 1005.6
20260508053035 3 308 0.0 0.0 0.00 0.00 0.00 74 1005.6
20260508051533 3 308 0.0 0.0 0.00 0.00 0.00 75 1005.7
20260508050035 4 308 0.0 0.0 0.00 0.00 0.00 71 1006.0
20260508044526 5 308 0.0 0.0 0.00 0.00 0.00 70 1005.9
20260508043030 5 308 0.0 0.0 0.00 0.00 0.00 66 1005.9
20260508041517 6 308 0.0 0.0 0.00 0.00 0.00 64 1005.9
20260508040015 6 254 0.0 0.0 0.00 0.00 0.00 62 1005.8
20260508034521 7 254 0.0 0.0 0.00 0.13 0.00 59 1005.9
20260508033011 7 255 0.0 0.0 0.00 0.13 0.00 56 1005.9
20260508031508 8 281 0.0 0.0 0.00 0.13 0.00 54 1005.8
20260508030007 7 283 0.0 0.0 0.00 0.13 0.00 53 1005.8
20260508024510 8 262 0.0 0.0 0.00 0.15 0.00 54 1005.9
20260508023004 8 257 0.0 4.8 0.00 0.15 0.00 52 1005.7
20260508021502 8 285 0.0 1.6 0.00 0.15 0.00 51 1005.5
20260508014559 9 323 0.0 4.8 0.00 0.15 0.00 50 1005.2
20260508013058 8 297 0.0 9.7 0.00 0.15 0.00 52 1005.0
20260508011606 8 264 0.0 4.8 0.00 0.15 0.00 55 1004.9
20260508010100 8 343 0.0 4.8 0.00 0.15 0.00 61 1004.7
20260508004557 8 243 0.0 0.0 0.00 0.18 0.00 60 1004.3
20260508003056 8 243 0.0 0.0 0.00 0.18 0.00 60 1004.0
20260508001556 9 244 0.0 0.0 0.00 0.18 0.00 59 1003.8
20260508000120 10 244 0.0 0.0 0.00 0.18 0.00 54 1003.6
20260507234554 11 244 0.0 0.0 0.00 0.18 0.00 51 1003.4
20260507233051 12 302 0.0 1.6 0.00 0.18 0.00 43 1003.4
20260507231558 12 87 0.0 6.4 0.00 0.18 0.00 40 1003.3
20260507230050 13 178 0.0 0.0 0.00 0.18 0.00 37 1003.1
20260507224552 13 217 0.0 3.2 0.00 0.18 0.00 34 1002.9
20260507223049 13 198 0.0 8.0 0.00 0.18 0.00 33 1002.7
20260507221550 14 210 0.0 4.8 0.00 0.18 0.00 33 1002.7
20260507220048 14 5 0.0 14.5 0.00 0.18 0.00 34 1002.6
20260507214549 14 98 0.0 17.7 0.00 0.28 0.00 34 1002.7
20260507213047 14 286 1.6 16.1 0.00 0.28 0.00 34 1002.7
20260507211555 16 317 1.6 14.5 0.00 0.28 0.00 33 1002.6
20260507210049 15 279 0.0 11.3 0.00 0.28 0.00 33 1002.6
20260507204546 15 197 0.0 20.9 0.00 0.56 0.00 32 1002.4
20260507203146 15 264 1.6 12.9 0.00 0.56 0.00 34 1002.5
20260507201545 16 277 0.0 17.7 0.00 0.56 0.00 32 1002.5
20260507200043 16 230 3.2 22.5 0.00 0.56 0.00 32 1002.5
20260507194542 16 55 3.2 19.3 0.00 0.84 0.00 33 1002.5
20260507193048 15 319 0.0 8.0 0.00 0.84 0.00 39 1002.6
20260507191541 15 229 0.0 11.3 0.00 0.84 0.00 40 1002.7
20260507190041 15 227 0.0 8.0 0.00 0.84 0.00 37 1002.9
20260507184541 15 192 0.0 8.0 0.00 1.91 0.00 41 1002.8
20260507183038 16 203 1.6 19.3 0.00 1.91 0.00 35 1002.8
20260507181538 16 243 1.6 16.1 0.00 1.91 0.00 35 1002.9
20260507180037 16 254 1.6 22.5 0.00 1.91 0.00 37 1003.0
20260507174546 16 223 1.6 14.5 0.00 1.91 0.00 42 1002.9
20260507173033 15 152 8.0 22.5 0.00 1.91 0.00 44 1003.3
20260507171542 15 269 1.6 25.7 0.00 1.91 0.00 47 1003.3
20260507170032 15 182 3.2 14.5 0.00 1.91 0.00 48 1003.6
20260507164534 15 192 0.0 19.3 0.00 1.91 0.00 52 1003.8
20260507163029 15 187 1.6 14.5 0.00 1.91 0.00 50 1003.7
20260507161530 14 174 3.2 17.7 0.00 1.91 0.00 51 1003.8
20260507160031 15 276 1.6 24.1 0.00 1.91 0.00 49 1004.1
20260507154527 15 192 0.0 14.5 0.00 1.91 0.00 55 1004.3
20260507153028 15 265 1.6 19.3 0.00 1.91 0.00 53 1004.2
20260507151524 15 270 4.8 19.3 0.00 1.91 0.00 54 1004.2
20260507150023 14 229 4.8 27.4 0.00 1.91 0.00 52 1004.2
20260507144522 15 257 0.0 14.5 0.00 1.91 0.00 55 1004.1
20260507143023 15 222 0.0 19.3 0.00 1.91 0.00 51 1004.0
20260507141522 15 246 1.6 11.3 0.00 1.91 0.00 55 1004.0
20260507140032 14 282 1.6 14.5 0.00 1.91 0.00 59 1004.2
20260507134517 14 223 1.6 6.4 0.00 1.91 0.00 58 1004.3
20260507133014 13 279 3.2 14.5 0.00 1.91 0.00 56 1004.5
20260507131512 12 294 1.6 16.1 0.00 1.91 0.00 61 1004.5
20260507130006 12 13 0.0 14.5 0.00 1.91 0.00 61 1004.7
20260507124505 12 215 0.0 14.5 0.00 1.91 0.00 67 1004.8
20260507123106 11 311 0.0 12.9 0.00 1.91 0.00 71 1004.8
20260507121600 11 101 0.0 3.2 0.00 1.91 0.00 74 1004.8